Weather in Toyama

Japan     36°34′53″N   137°10′56″E
temp.,
°C
wind,
m/s
gust,
m/s
humid.,
%
clouds,
%
prec.,
mm/h
press.,
hPa
HPBL,
m
29 september, wed
wed2900:00+16sse35936 0.0 101697
03:00+15sse45907 0.0 1015116
06:00+15sse458987 0.0 1015112
09:00+21s34685 0.0 1015426
12:00+25s24495 0.0 10121324
15:00+25sw135314 0.0 10111003
18:00+18sse33804 0.0 101350
21:00+17sse45841 0.0 1013110
30 september, thu
thu3000:00+16sse46875 0.0 1012141
03:00+16sse4686100 0.0 1011148
06:00+15sse5785100 0.0 1010155
09:00+21sse4565100 0.0 1010360
12:00+25s3449100 0.0 10081380
15:00+21n3478100 0.1 1009385
18:00+17sse1192100 0.1 100914
21:00+17s1189100 0.1 100812
1 october, fri
fri100:00+16s2292100 0.0 100825
03:00+16s1192100 0.0 100713
06:00+17wnw0197100 0.0 100797
09:00+19nw2286100 0.1 1006500
12:00+19nnw2382100 0.1 1004633
15:00+19nnw3492100 0.6 1004539
18:00+18nnw36100100 1.0 1004612
21:00+17nnw37100100 2.1 1005701
2 october, sat
sat200:00+16n38100100 1.3 1006648
03:00+16n4798100 2.9 1007681
06:00+15nnw2599100 1.1 1010255
09:00+16n239268 1.8 1013448
12:00+20nnw33622 0.1 10131157
15:00+20nnw336521 0.1 10131116
18:00+14ene019526 0.1 101611
21:00+13sse22913 0.1 101823
3 october, sun
sun300:00+12sse33790 0.0 101941
03:00+11sse34650 0.0 102056
06:00+11sse32590 0.0 102231
09:00+21s12440 0.0 1022296
12:00+24nnw21440 0.0 1022626
15:00+22n21560 0.0 1023491
18:00+16sse21860 0.0 102514
21:00+14sse33740 0.0 102649